Regional Weather Roundup
Issued by NWS Raleigh/Durham, NC

Home | Current Version | Previous Version | Text Only | Print | Product List | Glossary On
Versions: 1 2 3 4 5 6 7 8 9 10 11 12 13 14 15 16 17 18 19 20 21 22 23 24 25 26 27 28 29 30 31 32 33 34 35 36 37 38 39 40 41 42 43 44 45 46 47 48 49 50
000
ASUS42 KRAH 280910
RWRRAH
NORTH CAROLINA WEATHER ROUNDUP
NATIONAL WEATHER SERVICE RALEIGH NC
500 AM EDT SAT MAY 28 2016

NOTE: "FAIR" INDICATES FEW OR NO CLOUDS BELOW 12,000 FEET WITH NO
SIGNIFICANT WEATHER AND/OR OBSTRUCTIONS TO VISIBILITY.

NCZ001-053-055-056-065-067-281000-
WESTERN NORTH CAROLINA

CITY           SKY/WX    TMP DP  RH WIND       PRES   REMARKS
ASHEVILLE      FOG       58  56  93 CALM      30.20R VSB 1/4
JEFFERSON      PTCLDY    60  58  95 CALM      30.23R
MORGANTON      CLEAR     59  59 100 CALM      30.20R FOG
HICKORY        CLEAR     64  58  80 CALM      30.15S
RUTHERFORDTON  PTCLDY    63  62  97 CALM      30.16S
MOUNT AIRY     CLEAR     65  62  90 CALM      30.18S
BOONE          CLEAR     60  57  88 CALM      30.23S
$$

NCZ021-022-025-041-071-084-088-281000-
CENTRAL NORTH CAROLINA

CITY           SKY/WX    TMP DP  RH WIND       PRES   REMARKS
CHARLOTTE      CLEAR     64  56  75 CALM      30.15R
GREENSBORO     PTCLDY    65  61  87 S3        30.14S
WINSTON-SALEM  CLEAR     63  59  87 CALM      30.16S
RALEIGH-DURHAM PTCLDY    62  59  90 CALM      30.16R
FORT BRAGG     CLEAR     60  59  96 CALM      30.13S
FAYETTEVILLE   CLEAR     60  58  92 N5        30.13S
BURLINGTON     PTCLDY    60  57  89 CALM      30.15R
LAURINBURG     CLEAR     59  56  89 N3        30.13F
$$

NCZ011-015-027-028-043-044-047-080-103-281000-
NORTHEASTERN NORTH CAROLINA

CITY           SKY/WX    TMP DP  RH WIND       PRES   REMARKS
ROCKY MT-WILSO CLEAR     56  56 100 CALM      30.15S FOG
GREENVILLE     CLEAR     57  57 100 CALM      30.16S FOG
WASHINGTON     CLEAR     59  58  95 CALM      30.15S
ELIZABETH CITY CLEAR     62  61  96 CALM      30.16R
MANTEO         NOT AVBL
CAPE HATTERAS  CLEAR     73  68  84 SE6       30.14R
$$

NCZ078-087-090-091-093-098-101-281000-
SOUTHEASTERN NORTH CAROLINA

CITY           SKY/WX    TMP DP  RH WIND       PRES   REMARKS
LUMBERTON      CLEAR     62  59  90 NE3       30.11F
GOLDSBORO      CLEAR     58  58 100 CALM      30.13S
KINSTON        CLEAR     58  57  96 CALM      30.15S
KENANSVILLE    CLEAR     57  56  97 CALM      30.15R FOG
NEW BERN       CLEAR     63  60  90 CALM      30.14S
CHERRY POINT   CLEAR     67  65  93 CALM      30.14S
BEAUFORT       CLEAR     67  65  93 NE5       30.13R
JACKSONVILLE   PTCLDY    65  61  87 N3        30.12S
WILMINGTON     PTCLDY    64  63  96 NE5       30.11S
$$




USA.gov is the U.S. government's official web portal to all federal, state and local government web resources and services.